H-2A R/B, 41341

Orbit data source: Space-Track

H-2A R/B, 41341 is space debris in LEO originally from a launch on Wed, 17 Feb 2016 UTC launched from the Tanegashima Space Center (TNSTA). Debris objects in space refer to the collection of defunct objects orbiting the Earth. Examples of debris include non-operational satellites, rocket bodies, and fragments generated from explosions, collisions, or faulty payload assembly.

Not visible in the next 10 days
Identifier
41341, 2016-012E
Orbit
LEO
Last TLE update
8 hours ago
Origin
Manufacturer
MHI Tobishima
Mission
Spacecraft
Bus & Motor
H-2A STAGE 2, Unknown motor
Mass
4,000 kg wet, 4,000 kg dry
Launch date (UTC)
2016-02-17 (9 years ago)
Launch vehicle
Unknown
Launch site
Tanegashima Space Center (TNSTA)
Object type
Payload
Rocket body
Debris
Shape & HBR
Cyl, 9.2 m
Radar Cross Section
35.186 m², Large (>1 m²)

Expand to show TLE details & history

TLE from 8 hours ago
0 H-2A R/B
1 41341U 16012E   25185.89319055  .00013555  00000-0  37312-3 0  9992
2 41341  30.6248 126.9713 0008126 132.9871 227.1449 15.35779556517752
Epoch: 2025-07-04T21:26Z
TLE epoch observation values (Epoch: 2025-07-04T21:26:11.663Z)
Latitude
-0.00003°
Longitude
-117.7164°
Altitude
460.841 km
Speed
7.637 km/s
True Right ascension
08h 27m 53s
True Declination
0° 00' 00"
Sunlit
Object was in daylight at epoch
Visualization orbit readout
Latitude
3.33575°
Longitude
-114.29506°
Altitude
460.22 km
Speed
7.637 km/s
Apparent Right ascension
07h 14m 09s
Apparent Declination
-19° 15' 02"
Sunlit
Object is in daylight
Visualization observer readout
Local Sidereal Time
17:09:10
Azimuth
298.424° NW
Elevation
-56.163°
Doppler factor
1
Orbital elements
Apogee altitude
468.105 km
Perigee altitude
456.987 km
Semi-major axis
6,840.683 km
Eccentricity
0.00081
Inclination
30.6248°
RAAN
126.9713°
Arg. of periapsis
132.9871°
True anomaly
Unknown
Mean anomaly
227.1449°
Eccentric anomaly
Unknown
Mean motion
3.83614 °/min
Orbital period
93.84 mins
BSTAR
0.00037312
Loading maneuver chart data...
Loading SW <> Apogee altitude chart data...
Loading historical data...
Loading historical data...
Loading historical data...
Loading historical data...
Loading historical data...
Loading historical data...
Loading historical data...

H-2A R/B Visibility

Observer location: undefined°, undefined°

H-2A R/B is likely not visible in the next few days
Span
Click to sort rows by Start time (UTC) header in descending order
Start Az.
Max El. time (UTC)
Max El. Az.
Max El.
End time (UTC)
End Az.
|